CW6294 Weather Reports


Display with metric or nautical units.
time (UTC)temp
F
wind
direction
speed
MPH
gust
MPH
rain 1hr
in
rain 24hr
in
rain mn
in
humidity
%
barometer
mb
20260904093034 71 184 0.0 2.0 0.00 1.67 1.02 100 1011.1
20260904091532 71 184 0.0 0.0 0.00 1.67 1.02 100 1011.3
20260904090021 71 184 0.0 1.0 0.00 1.67 1.02 100 1011.5
20260904084519 71 184 0.0 0.0 0.00 1.67 1.02 100 1011.6
20260904083012 71 184 0.0 0.0 0.00 1.67 1.02 100 1011.5
20260904081502 71 184 0.0 0.0 0.00 1.67 1.02 100 1011.5
20260904075954 71 184 0.0 0.0 0.00 1.67 1.02 100 1011.7
20260904075151 71 184 0.0 1.0 0.00 1.67 1.02 100 1011.7
20260904073639 71 184 0.0 0.0 0.00 1.67 1.02 100 1011.9
20260904071435 71 184 0.0 1.0 0.00 1.67 1.02 100 1012.0
20260904065926 71 184 0.0 2.0 0.00 1.67 1.02 100 1012.0
20260904064425 71 82 0.0 2.0 0.00 1.67 1.02 100 1011.9
20260904062916 71 78 0.0 2.0 0.00 1.67 1.02 100 1011.4
20260904061415 71 90 0.0 2.0 0.01 1.67 1.02 100 1011.2
20260904055913 71 193 0.0 2.0 0.05 1.67 1.02 100 1011.1
20260904054404 70 194 1.0 5.0 0.23 1.67 1.02 100 1011.1
20260904053546 70 187 2.0 9.0 0.49 1.67 1.02 100 1011.3
20260904052050 71 206 1.0 7.0 0.76 1.66 1.01 100 1012.1
20260904045901 70 56 0.0 1.0 0.99 1.62 0.98 100 1012.3
20260904044401 70 56 0.0 2.0 1.09 1.44 0.80 100 1013.1
20260904042902 70 342 3.0 10.0 1.11 1.18 0.54 100 1013.8
20260904041353 70 299 6.0 15.0 0.90 0.90 0.25 100 1015.6
20260904040545 71 283 11.0 43.0 0.61 0.61 0.63 100 1014.2
20260904035052 75 269 7.0 42.0 0.35 0.35 0.36 98 1015.3
20260904032851 82 234 6.0 37.0 0.07 0.07 0.08 93 1012.8
20260904032050 84 242 0.0 0.0 0.00 0.00 0.00 93 1011.8
20260904030538 84 242 0.0 0.0 0.00 0.00 0.00 92 1011.8
20260904024349 84 292 0.0 2.0 0.00 0.00 0.00 92 1011.9
20260904022847 84 205 0.0 2.0 0.00 0.00 0.00 91 1012.2
20260904021345 85 205 0.0 1.0 0.00 0.00 0.00 91 1012.1
20260904015841 85 205 0.0 4.0 0.00 0.00 0.00 90 1012.3
20260904015043 85 210 1.0 4.0 0.00 0.00 0.00 90 1012.3
20260904013534 85 175 1.0 6.0 0.00 0.00 0.00 89 1012.2
20260904011326 85 221 1.0 5.0 0.00 0.00 0.00 89 1012.2
20260904005825 86 178 0.0 4.0 0.00 0.00 0.00 88 1012.2
20260904004324 86 198 0.0 4.0 0.00 0.00 0.00 88 1012.6
20260904002810 87 186 1.0 6.0 0.00 0.00 0.00 87 1012.8
20260904002013 87 194 0.0 5.0 0.00 0.00 0.00 87 1012.9
20260903235807 87 232 0.0 6.0 0.00 0.00 0.00 87 1012.6
20260903234307 87 186 0.0 0.0 0.00 0.00 0.00 87 1012.3
20260903232806 88 207 0.0 0.0 0.00 0.00 0.00 86 1012.1
20260903231306 88 191 0.0 0.0 0.00 0.00 0.00 85 1012.0
20260903225806 89 142 0.0 0.0 0.00 0.00 0.00 84 1012.0
20260903225003 89 179 0.0 7.0 0.00 0.00 0.00 84 1011.8
20260903223500 89 174 2.0 7.0 0.00 0.00 0.00 83 1011.7
20260903221250 90 143 1.0 8.0 0.00 0.00 0.00 83 1011.6
20260903215748 90 102 1.0 8.0 0.00 0.00 0.00 82 1011.8
20260903214246 91 205 2.0 7.0 0.00 0.00 0.00 81 1011.7
20260903212744 92 171 3.0 8.0 0.00 0.00 0.00 80 1011.8
20260903211245 92 191 0.0 6.0 0.00 0.00 0.00 79 1011.8
20260903205744 92 175 3.0 10.0 0.00 0.00 0.00 78 1012.0
20260903204244 92 209 3.0 10.0 0.00 0.00 0.00 74 1012.1
20260903203442 92 223 4.0 11.0 0.00 0.00 0.00 76 1012.2
20260903201242 92 238 4.0 11.0 0.00 0.00 0.00 76 1012.5
20260903195740 92 186 1.0 7.0 0.00 0.00 0.00 75 1012.7
20260903194239 91 270 3.0 9.0 0.00 0.00 0.00 77 1012.9
20260903192737 90 241 2.0 9.0 0.00 0.00 0.00 79 1013.1
20260903191236 89 205 2.0 8.0 0.00 0.00 0.00 80 1013.4
20260903190422 90 212 0.0 2.0 0.00 0.00 0.00 79 1013.6
20260903184945 90 213 2.0 9.0 0.00 0.00 0.00 78 1013.7
20260903182732 89 191 0.0 0.0 0.00 0.08 0.00 80 1013.6
20260903181922 88 215 0.0 5.0 0.00 0.13 0.00 81 1013.7
20260903175728 88 198 2.0 8.0 0.00 0.13 0.00 80 1013.7
20260903174221 87 193 2.0 7.0 0.00 0.13 0.00 82 1014.3
20260903172722 86 269 3.0 8.0 0.00 0.13 0.00 84 1014.8
20260903171217 85 236 1.0 6.0 0.00 0.13 0.00 85 1015.0
20260903165711 84 292 1.0 6.0 0.00 0.13 0.00 89 1015.4
20260903164211 83 285 0.0 6.0 0.00 0.13 0.00 89 1015.5
20260903162710 83 270 0.0 5.0 0.00 0.13 0.00 92 1015.6
20260903161158 82 277 1.0 8.0 0.00 0.13 0.00 93 1015.9
20260903160347 82 275 3.0 10.0 0.00 0.13 0.00 92 1016.5
20260903154156 83 290 1.0 6.0 0.00 0.13 0.00 92 1016.2
20260903152656 83 189 1.0 6.0 0.00 0.13 0.00 93 1015.9
20260903151844 82 186 1.0 6.0 0.00 0.13 0.00 93 1015.8
20260903145649 82 124 2.0 8.0 0.00 0.13 0.00 95 1015.5
20260903144149 80 205 2.0 7.0 0.00 0.13 0.00 97 1015.5
20260903142648 79 171 2.0 7.0 0.00 0.13 0.00 99 1015.5
20260903141148 77 146 1.0 5.0 0.00 0.13 0.00 100 1015.2
20260903135648 77 171 1.0 4.0 0.00 0.13 0.00 100 1015.2
20260903134832 77 78 0.0 0.0 0.00 0.13 0.00 100 1015.3
20260903132643 76 49 0.0 3.0 0.00 0.13 0.00 100 1015.6
20260903131128 76 86 2.0 5.0 0.00 0.13 0.00 100 1015.8
20260903125623 75 82 0.0 3.0 0.00 0.13 0.00 100 1016.3
20260903124121 75 84 0.0 2.0 0.00 0.13 0.00 100 1016.5
20260903122604 75 84 0.0 3.0 0.00 0.13 0.00 100 1016.8
20260903121105 74 5 1.0 4.0 0.00 0.13 0.00 100 1017.0
20260903115603 74 71 1.0 5.0 0.00 0.13 0.00 100 1016.7
20260903114054 74 300 1.0 5.0 0.00 0.13 0.00 100 1017.0
20260903112551 74 89 0.0 0.0 0.00 0.13 0.00 100 1016.1
20260903111049 74 117 0.0 0.0 0.00 0.13 0.00 100 1015.9